Location: ?astrovice
(49.6513°N, 14.9287°E)
Time: 01:13:02
(UTC+00:00)

Cosmos 1980 Rocket - Pass Details

Date: 09 April 2020
Orbit: 828 x 850 km, 71.0° (Epoch: 30 May)

Event Time Altitude Azimuth Distance (km) Brightness Sun altitude
Rises 19:53:03 0° 334° (NNW) 3,388 6.5 -19.3°
Reaches altitude 10° 19:55:43 10° 343° (NNW) 2,453 5.4 -19.6°
Maximum altitude 20:00:51 35° 49° (NE) 1,330 3.1 -20.2°
Enters shadow 20:02:42 28° 86° (E) 1,528 3.2 -20.5°
